Regional Weather Roundup
Issued by NWS

Home | Current Version | Previous Version | Graphics & Text | Print | Product List | Glossary On
Versions: 1 2 3 4 5 6 7 8 9 10 11 12 13 14 15 16 17 18 19 20 21 22 23 24 25 26 27 28 29 30 31 32 33 34 35 36 37 38 39 40 41 42 43 44 45 46 47 48 49 50
000
ASUS43 KBIS 182210
RWRND

NORTH DAKOTA REGIONAL WEATHER ROUNDUP
NATIONAL WEATHER SERVICE BISMARCK ND
500 PM CDT THU SEP 18 2014

NOTE: "FAIR" INDICATES FEW OR NO CLOUDS BELOW 12,000 FEET WITH NO
SIGNIFICANT WEATHER AND/OR OBSTRUCTIONS TO VISIBILITY.


NDZ001>003-009>011-017-182300-
NORTHWEST NORTH DAKOTA

CITY           SKY/WX    TMP DP  RH WIND       PRES   REMARKS
WILLISTON      CLOUDY    80  54  40 SW12      29.61F
MINOT          PTSUNNY   79  61  53 S20G26    29.62F
MINOT AFB      PTSUNNY   78  63  59 S16G25    29.61F
$$

NDZ018>021-031>035-040>046-182300-
SOUTHWEST NORTH DAKOTA

CITY           SKY/WX    TMP DP  RH WIND       PRES   REMARKS
BISMARCK       PTSUNNY   81  63  54 S17       29.71F
DICKINSON      CLOUDY    77  59  53 S13       29.70F
GARRISON         N/A     77  65  66 S14       29.67F
HETTINGER ARPT CLOUDY    77  60  55 S10       29.75F
$$

NDZ004>008-012>016-024-026-027-054-182300-
NORTHEAST NORTH DAKOTA

CITY           SKY/WX    TMP DP  RH WIND       PRES   REMARKS
GRAND FORKS    MOSUNNY   73  56  54 S18G24    29.78F
GRND FRKS AFB  SUNNY     71  58  63 S17       29.78F
DEVILS LAKE    PTSUNNY   73  57  56 S15G22    29.72F
$$

NDZ022-023-025-028>030-036>039-047>053-182300-
SOUTHEAST NORTH DAKOTA

CITY           SKY/WX    TMP DP  RH WIND       PRES   REMARKS
FARGO          SUNNY     75  59  57 S16G25    29.82F
JAMESTOWN      MOSUNNY   77  60  55 S22G31    29.75F
$$



USA.gov is the U.S. government's official web portal to all federal, state and local government web resources and services.